Location: *
(39.6167°S, 171.5333°W)
Time: 22:14:17
(UTC+00:00)

COSMOS 2455 - Pass Details

Date: 13 May 2021
Orbit: 902 x 908 km, 67.1° (Epoch: 15 June)

Event Time Altitude Azimuth Distance (km) Brightness Sun altitude
Exits shadow 15:01:25 33° 103° (ESE) 1,481 4.3 -38.6°
Drops below altitude 10° 15:05:25 10° 137° (SE) 2,612 5.7 -37.9°
Sets 15:08:05 0° 144° (SE) 3,559 6.4 -37.4°
